"Pseudo-MPEC" for ST22K90

Created 2022 Nov 26 19:22:23 UT using Find_Orb

Click here for an explanation of pseudo-MPECs

 
 Astrometry: 
     ST22K90* C2022 11 21+gi6_jjZpv6kBa9dCTaF`c+5Astrometry_^'G#HMl_g\)GR%7wxU68
     ST22K90  C2022 11 21kfvEMB_redacted;-_DCy(;)(W0gxFJERP6ORhtrdsy`X-F*y_EYU68
     ST22K90  C2022 11 21h=ay'OQMSPYclick]fbhereiU]asVaZiHZforERYexplanation^U68
     ST22K90  C2022 11 21Q8'HyZO(26b[sOCc^ZJ17eEZ3%%?8J*Er^%G@7#V8*)\mApqRa]xU68

Station data:
(U68) JPL SynTrack Robotic Telescope, Auberry  (N37.070387 W119.412990)
   US/California.  Observers N. Saini, C. Zhai, R. Trahan, M. Zhan, M. Shao.
   0.28-m f/2.2 Schmidt + CCD.

Orbital elements:  ST22K90
   Perihelion 2023 Jan 16.99420 +/- 28.9 TT = 23:51:38 (JD 2459961.49420)
Epoch 2022 Nov 21.0 TT = JDT 2459904.5   Earth MOID: 0.0055   AutoNEOCP
M 310.55197467 +/- 20               (J2000 ecliptic)
n   0.86759752 +/- 0.409            Peri.   64.49311 +/- 43
a   1.08873916 +/- 0.342            Node    58.65285 +/- 0.15
e   0.1551660 +/- 0.259             Incl.    6.25116 +/- 8
P   1.14/414.93d           H 29.9   G  0.15   U 12.1  SR
q 0.91980376 +/- 0.153    Q 1.25767456 +/- 29.6
From 4 observations 2022 Nov. 21 (35.8 min); mean residual 0".19
Residuals in arcseconds: 
221121 U68  .16-  .08+    221121 U68  .08+  .36-    
221121 U68  .17+  .02-    221121 U68  .09-  .31+    

Ephemerides (geocentric):
Date (UTC) HH   RA             Dec           delta  r     elong  mag " sig PA
---- --------  ------------   ------------  ------ ------ -----  --- --------
2022 11 26 19  15 18 19.938   +48 51 18.36  .01200 .98305  70.7 24.4  50d  25
2022 11 26 20  15 18 55.428   +48 35 26.02  .01211 .98296  70.5 24.4  50d  24
2022 11 26 21  15 19 29.944   +48 19 49.37  .01221 .98286  70.2 24.4  50d  24
2022 11 26 22  15 20 03.525   +48 04 28.08  .01232 .98277  70.0 24.5  50d  24
2022 11 26 23  15 20 36.208   +47 49 21.83  .01243 .98267  69.7 24.5  51d  23
2022 11 27 00  15 21 08.029   +47 34 30.29  .01253 .98258  69.5 24.5  51d  23
2022 11 27 01  15 21 39.021   +47 19 53.14  .01264 .98249  69.2 24.6  51d  23
2022 11 27 02  15 22 09.216   +47 05 30.09  .01274 .98239  69.0 24.6  51d  23
2022 11 27 03  15 22 38.643   +46 51 20.82  .01285 .98230  68.7 24.6  51d  23
2022 11 27 04  15 23 07.331   +46 37 25.06  .01296 .98220  68.5 24.6  51d  23
2022 11 27 05  15 23 35.307   +46 23 42.50  .01307 .98211  68.3 24.7  52d  23
2022 11 27 06  15 24 02.598   +46 10 12.87  .01317 .98202  68.1 24.7  52d  23
2022 11 27 07  15 24 29.228   +45 56 55.89  .01328 .98192  67.8 24.7  52d  22
2022 11 27 08  15 24 55.221   +45 43 51.31  .01339 .98183  67.6 24.8  52d  22
2022 11 27 09  15 25 20.598   +45 30 58.84  .01350 .98173  67.4 24.8  52d  22
2022 11 27 10  15 25 45.382   +45 18 18.25  .01361 .98164  67.2 24.8  52d  22
2022 11 27 11  15 26 09.593   +45 05 49.29  .01371 .98155  67.0 24.9  52d  22
2022 11 27 12  15 26 33.250   +44 53 31.70  .01382 .98145  66.8 24.9  52d  22
2022 11 27 13  15 26 56.372   +44 41 25.25  .01393 .98136  66.6 24.9  53d  22
2022 11 27 14  15 27 18.976   +44 29 29.71  .01404 .98127  66.4 24.9  53d  22
2022 11 27 15  15 27 41.080   +44 17 44.86  .01415 .98117  66.2 25.0  53d  22
2022 11 27 16  15 28 02.700   +44 06 10.46  .01426 .98108  66.0 25.0  53d  22
2022 11 27 17  15 28 23.852   +43 54 46.31  .01437 .98099  65.9 25.0  53d  22
2022 11 27 18  15 28 44.551   +43 43 32.20  .01448 .98089  65.7 25.1  53d  22
2022 11 27 19  15 29 04.810   +43 32 27.92  .01459 .98080  65.5 25.1  53d  21
2022 11 27 20  15 29 24.644   +43 21 33.27  .01470 .98071  65.3 25.1  53d  21
2022 11 27 21  15 29 44.066   +43 10 48.05  .01481 .98061  65.1 25.1  53d  21
2022 11 27 22  15 30 03.088   +43 00 12.08  .01492 .98052  65.0 25.2  53d  21
2022 11 27 23  15 30 21.722   +42 49 45.16  .01503 .98043  64.8 25.2  54d  21
2022 11 28 00  15 30 39.981   +42 39 27.12  .01514 .98033  64.6 25.2  54d  21
2022 11 28 01  15 30 57.875   +42 29 17.77  .01525 .98024  64.5 25.2  54d  21
2022 11 28 02  15 31 15.415   +42 19 16.95  .01536 .98015  64.3 25.3  51d  20
2022 11 28 03  15 31 32.612   +42 09 24.48  .01547 .98005  64.2 25.3  51d  20
2022 11 28 04  15 31 49.475   +41 59 40.20  .01559 .97996  64.0 25.3  51d  20
2022 11 28 05  15 32 06.013   +41 50 03.95  .01570 .97987  63.8 25.4  51d  20
2022 11 28 06  15 32 22.237   +41 40 35.56  .01581 .97978  63.7 25.4  51d  20
2022 11 28 07  15 32 38.155   +41 31 14.90  .01592 .97968  63.5 25.4  51d  20
2022 11 28 08  15 32 53.776   +41 22 01.79  .01603 .97959  63.4 25.4  51d  20
2022 11 28 09  15 33 09.107   +41 12 56.11  .01614 .97950  63.3 25.4  51d  20
2022 11 28 10  15 33 24.156   +41 03 57.70  .01626 .97941  63.1 25.5  51d  20
2022 11 28 11  15 33 38.932   +40 55 06.43  .01637 .97931  63.0 25.5  51d  20
2022 11 28 12  15 33 53.441   +40 46 22.16  .01648 .97922  62.8 25.5  51d  20
2022 11 28 13  15 34 07.692   +40 37 44.75  .01659 .97913  62.7 25.5  51d  20
2022 11 28 14  15 34 21.689   +40 29 14.08  .01670 .97904  62.6 25.6  52d  20
2022 11 28 15  15 34 35.441   +40 20 50.02  .01682 .97894  62.4 25.6  52d  20
2022 11 28 16  15 34 48.954   +40 12 32.44  .01693 .97885  62.3 25.6  52d  20
2022 11 28 17  15 35 02.233   +40 04 21.23  .01704 .97876  62.2 25.6  52d  20
2022 11 28 18  15 35 15.285   +39 56 16.25  .01715 .97867  62.0 25.7  52d  20